Regional Weather Roundup
Issued by NWS Jackson, KY

Home | Current Version | Previous Version | Graphics & Text | Print | Product List | Glossary On
Versions: 1 2 3 4 5 6 7 8 9 10 11 12 13 14 15 16 17 18 19 20 21 22 23 24 25 26 27
000
ASUS43 KJKL 240410
RWRJKL

EAST KENTUCKY HOURLY WEATHER ROUNDUP
NATIONAL WEATHER SERVICE JACKSON KY
1200 AM EDT SUN JUL 24 2016

NOTE: "FAIR" INDICATES FEW OR NO CLOUDS BELOW 12,000 FEET WITH
NO SIGNIFICANT WEATHER AND/OR OBSTRUCTIONS TO VISIBILITY.

* THESE REPORTS ARE NOT UNDER NWS QUALITY CONTROL AND MAY NOT
  REPORT WEATHER SUCH AS PRECIPITATION AND FOG.

KYZ079-080-083-085-087-088-110-112-115-119-120-240500
...EASTERN KENTUCKY...

CITY           SKY/WX    TMP DP  RH WIND       PRES   REMARKS
JACKSON        CLOUDY    79  71  76 SE3       30.06R
LONDON         CLOUDY    78  70  76 CALM      30.06R
SOMERSET*      CLEAR     73  70  88 CALM      30.06R
MONTICELLO*    PTCLDY   N/A N/A N/A W8        30.06R
WILLIAMSBURG*  CLOUDY    73  73 100 CALM      30.06R
MIDDLESBORO*   CLOUDY    73  73  99 CALM      30.07R
HARLAN APT*      N/A     72  68  88 CALM      30.08S
PIKE CO APT*     N/A     76  67  74 CALM      30.07R
MOREHEAD APT*  CLEAR     79  73  83 CALM      30.05S
ASHLAND*       CLEAR     77  73  88 CALM      29.99S
$$

KYZ035-036-041-042-044-050-067-078-099-240500
...CENTRAL KENTUCKY...

CITY           SKY/WX    TMP DP  RH WIND       PRES   REMARKS
MT STERLING*   CLEAR     77  75  94 CALM      30.04F
FLEMING/MASON* CLEAR     78  74  88 CALM      30.04S
DANVILLE*      CLEAR     77  73  88 CALM      30.05R
RICHMOND*      CLEAR     77  72  83 CALM      30.03S
LEXINGTON      PTCLDY    79  73  82 CALM      30.03S
FRANKFORT      CLEAR     79  74  84 CALM      30.01R
LOUISVILLE     PTCLDY    86  74  67 SW3       29.98F HX  94
LEBANON*         N/A     81  75  83 CALM      30.02F
GLASGOW*       CLEAR     80  72  78 CALM      30.01S
BOWLING GREEN  CLEAR     80  75  84 E5        29.99F
$$

KYZ091>093-OHZ055-061-077-WVZ005-015-034-035-042-240500
...SOUTHERN OHIO/WEST VIRGINIA...

CITY           SKY/WX    TMP DP  RH WIND       PRES   REMARKS
COVINGTON      PTCLDY    81  73  76 CALM      30.01F
COLUMBUS       CLOUDY    80  73  79 CALM      30.00S
DAYTON         MOCLDY    78  72  81 W3        30.02F
WILMINGTON     CLEAR     76  74  93 CALM      30.02S
HUNTINGTON       N/A     78  75  90 CALM      30.02R
CHARLESTON       N/A     76  73  91 CALM      30.03R
PINEVILLE*       N/A     73  70  89 MISG      30.13S
BECKLEY          N/A     73  68  84 CALM      30.13R
BLUEFIELD        N/A     73  66  78 W3        30.15S
LOGAN CO APT*    N/A     79  72  78 CALM      30.06S
$$

VAZ002-007-008-TNZ017-027-036-066-071-240500
...SOUTHWEST VIRGINIA/EAST TENNESSEE...

CITY           SKY/WX    TMP DP  RH WIND       PRES   REMARKS
WISE*            N/A     72  61  68 CALM      30.15F
JONESVILLE*      N/A     75  68  78 CALM      30.09R
ABINGDON*        N/A     76  70  82 CALM      30.11S
BRISTOL        CLEAR     73  68  84 CALM      30.08R
MORRISTOWN*    CLOUDY    73  70  88 SW5       30.07R
SEVIERVILLE*   CLEAR     72  66  83 CALM      30.06S
KNOXVILLE      CLEAR     75  70  84 SE5       30.05S
OAK RIDGE      CLEAR     76  72  87 CALM      30.07R
CROSSVILLE     CLOUDY    71  69  93 CALM      30.10R
NASHVILLE      MOCLDY    78  70  76 S3        30.00S
$$

...KEY TO REMARKS...
VSB - VISIBILITY IN MILES
WCI - WIND CHILL INDEX
HX  - HEAT INDEX

$$




USA.gov is the U.S. government's official web portal to all federal, state and local government web resources and services.